GW3733 Weather Reports


time (UTC)temp
C
wind
direction
speed
KPH
gust
KPH
rain 1hr
cm
rain 24hr
cm
rain mn
cm
humidity
%
barometer
mb
20260901205535 30 340 0.0 0.0 0.00 0.00 0.00 69 1012.5
20260901205030 30 357 0.0 0.0 0.00 0.00 0.00 70 1012.6
20260901204526 30 348 0.0 0.0 0.00 0.00 0.00 72 1012.5
20260901204021 30 343 0.0 0.0 0.00 0.00 0.00 68 1012.7
20260901203521 30 293 0.0 0.0 0.00 0.00 0.00 68 1012.7
20260901203016 30 341 0.0 0.0 0.00 0.00 0.00 69 1012.9
20260901202510 30 337 0.0 0.0 0.00 0.00 0.00 70 1012.6
20260901202006 30 346 0.0 0.0 0.00 0.00 0.00 72 1012.8
20260901201501 30 351 0.0 0.0 0.00 0.00 0.00 67 1012.9
20260901200956 31 342 0.0 0.0 0.00 0.00 0.00 68 1012.5
20260901200451 30 341 0.0 0.0 0.00 0.00 0.00 67 1012.6
20260901195950 31 349 0.0 0.0 0.00 0.00 0.00 66 1012.6
20260901195449 31 330 0.0 0.0 0.00 0.00 0.00 69 1012.6
20260901194943 31 4 0.0 0.0 0.00 0.00 0.00 65 1012.6
20260901194438 31 318 0.0 0.0 0.00 0.00 0.00 64 1012.6
20260901193935 32 336 0.0 0.0 0.00 0.00 0.00 63 1012.5
20260901193434 32 334 0.0 0.0 0.00 0.00 0.00 62 1012.7
20260901192933 32 340 0.0 0.0 0.00 0.00 0.00 63 1012.7
20260901192429 31 358 0.0 0.0 0.00 0.00 0.00 64 1012.9
20260901191925 32 353 0.0 0.0 0.00 0.00 0.00 64 1012.8
20260901191422 31 336 0.0 0.0 0.00 0.00 0.00 63 1013.0
20260901190916 31 0 0.0 0.0 0.00 0.00 0.00 65 1013.0
20260901190411 32 333 0.0 0.0 0.00 0.00 0.00 61 1013.3
20260901185909 32 351 0.0 0.0 0.00 0.00 0.00 65 1013.1
20260901185409 33 339 0.0 0.0 0.00 0.00 0.00 65 1013.2
20260901184903 32 331 0.0 0.0 0.00 0.00 0.00 59 1013.1
20260901184359 32 49 0.0 0.0 0.00 0.00 0.00 60 1013.3
20260901183854 32 342 0.0 0.0 0.00 0.00 0.00 62 1013.4
20260901183353 32 341 0.0 0.0 0.00 0.00 0.00 63 1013.5
20260901182849 31 341 0.0 0.0 0.00 0.00 0.00 63 1013.9
20260901182350 31 336 0.0 0.0 0.00 0.00 0.00 63 1013.6
20260901181844 32 326 0.0 0.0 0.00 0.00 0.00 61 1013.9
20260901181339 31 352 0.0 0.0 0.00 0.00 0.00 63 1013.5
20260901180838 32 205 0.0 0.0 0.00 0.00 0.00 61 1013.9
20260901180337 32 164 0.0 0.0 0.00 0.00 0.00 64 1013.7
20260901175836 32 358 0.0 0.0 0.00 0.00 0.00 64 1013.7
20260901175331 31 343 0.0 0.0 0.00 0.00 0.00 64 1014.0
20260901174826 31 294 0.0 0.0 0.00 0.00 0.00 66 1014.0
20260901174322 30 333 0.0 0.0 0.00 0.00 0.00 74 1013.5
20260901173817 30 357 0.0 0.0 0.00 0.00 0.00 72 1013.7
20260901173312 30 355 0.0 0.0 0.00 0.00 0.00 70 1013.5
20260901172809 30 340 0.0 0.0 0.00 0.00 0.00 73 1013.6
20260901172308 30 304 0.0 0.0 0.00 0.00 0.00 72 1013.4
20260901171806 30 351 0.0 0.0 0.00 0.00 0.00 72 1013.3
20260901171305 30 351 0.0 0.0 0.00 0.00 0.00 70 1013.3
20260901170805 31 355 0.0 0.0 0.00 0.00 0.00 67 1013.5
20260901170259 31 2 0.0 0.0 0.00 0.00 0.00 67 1013.6
20260901165757 31 309 0.0 0.0 0.00 0.00 0.00 68 1013.5
20260901165252 31 330 0.0 0.0 0.00 0.00 0.00 72 1013.4
20260901164749 31 343 0.0 0.0 0.00 0.00 0.00 67 1013.9
20260901164244 31 347 0.0 0.0 0.00 0.00 0.00 73 1014.0
20260901163739 31 348 0.0 0.0 0.00 0.00 0.00 70 1014.0
20260901163239 31 58 0.0 0.0 0.00 0.00 0.00 66 1013.9
20260901162734 31 354 0.0 0.0 0.00 0.00 0.00 68 1013.9
20260901162233 31 73 0.0 0.0 0.00 0.00 0.00 71 1013.6
20260901161732 31 307 0.0 0.0 0.00 0.00 0.00 68 1013.7
20260901161227 31 8 0.0 0.0 0.00 0.00 0.00 70 1013.7
20260901160723 31 323 0.0 0.0 0.00 0.00 0.00 73 1013.7
20260901160219 30 344 0.0 0.0 0.00 0.00 0.00 73 1014.1
20260901155717 29 352 0.0 0.0 0.00 0.00 0.00 81 1014.3
20260901155212 29 161 0.0 0.0 0.00 0.00 0.00 75 1014.2
20260901154708 29 331 0.0 0.0 0.00 0.00 0.00 77 1014.2
20260901154202 30 347 0.0 0.0 0.00 0.00 0.00 74 1014.2
20260901153657 30 329 0.0 0.0 0.00 0.00 0.00 76 1014.2
20260901153151 30 307 0.0 0.0 0.00 0.00 0.00 70 1014.1
20260901152646 31 242 0.0 0.0 0.00 0.00 0.00 71 1014.1
20260901152144 31 349 0.0 0.0 0.00 0.00 0.00 72 1014.1
20260901151641 30 26 0.0 0.0 0.00 0.00 0.00 74 1014.2
20260901151140 30 4 0.0 0.0 0.00 0.00 0.00 73 1014.3
20260901150639 30 70 0.0 0.0 0.00 0.00 0.00 72 1014.0
20260901150138 29 357 0.0 0.0 0.00 0.00 0.00 81 1014.2
20260901145636 28 2 0.0 0.0 0.00 0.00 0.00 82 1014.3
20260901145135 28 344 0.0 0.0 0.00 0.00 0.00 83 1014.3
20260901144631 27 352 0.0 0.0 0.00 0.00 0.00 85 1014.1
20260901144126 28 338 0.0 0.0 0.00 0.00 0.00 82 1014.3
20260901143621 28 7 0.0 0.0 0.00 0.00 0.00 82 1014.2
20260901143118 28 355 0.0 0.0 0.00 0.00 0.00 85 1014.4
20260901142613 28 333 0.0 0.0 0.00 0.00 0.00 83 1014.2
20260901142107 28 2 0.0 0.0 0.00 0.00 0.00 82 1014.2
20260901141602 29 2 0.0 0.0 0.00 0.00 0.00 79 1014.3
20260901141057 28 136 0.0 0.0 0.00 0.00 0.00 80 1014.3
20260901140555 28 206 0.0 0.0 0.00 0.00 0.00 80 1014.4
20260901140049 28 14 0.0 0.0 0.00 0.00 0.00 82 1014.5
20260901135548 27 19 0.0 0.0 0.00 0.00 0.00 83 1014.4
20260901135045 27 351 0.0 0.0 0.00 0.00 0.00 84 1014.6
20260901134541 26 328 0.0 0.0 0.00 0.00 0.00 86 1014.5
20260901134040 27 64 0.0 0.0 0.00 0.00 0.00 84 1014.7
20260901133534 27 347 0.0 0.0 0.00 0.00 0.00 87 1014.7
20260901133032 26 48 0.0 0.0 0.00 0.00 0.00 85 1014.6
20260901132527 25 84 0.0 0.0 0.00 0.00 0.00 89 1014.7
20260901132026 25 109 0.0 0.0 0.00 0.00 0.00 91 1014.4
20260901131521 24 1 0.0 0.0 0.00 0.00 0.00 94 1014.7
20260901131016 23 355 0.0 0.0 0.00 0.00 0.00 96 1014.7
20260901130511 22 354 0.0 0.0 0.00 0.00 0.00 99 1014.6
20260901130010 22 354 0.0 0.0 0.00 0.00 0.00 99 1014.7
20260901125508 22 354 0.0 0.0 0.00 0.00 0.00 99 1014.8
20260901125003 21 354 0.0 0.0 0.00 0.00 0.00 99 1014.7
20260901124458 21 354 0.0 0.0 0.00 0.00 0.00 99 1014.9
20260901123953 21 354 0.0 0.0 0.00 0.00 0.00 99 1014.8
20260901123448 21 354 0.0 0.0 0.00 0.00 0.00 99 1014.9
20260901122946 21 354 0.0 0.0 0.00 0.00 0.00 99 1014.9
20260901122445 20 354 0.0 0.0 0.00 0.00 0.00 99 1015.0
20260901121945 20 354 0.0 0.0 0.00 0.00 0.00 99 1015.2
20260901121440 20 354 0.0 0.0 0.00 0.00 0.00 99 1014.9
20260901120935 20 354 0.0 0.0 0.00 0.00 0.00 99 1015.2
20260901120429 20 354 0.0 0.0 0.00 0.00 0.00 99 1014.9
20260901115925 20 354 0.0 0.0 0.00 0.00 0.00 99 1015.0
20260901115424 19 353 0.0 0.0 0.00 0.00 0.00 99 1014.8
20260901114922 19 353 0.0 0.0 0.00 0.00 0.00 99 1014.8
20260901114418 19 353 0.0 0.0 0.00 0.00 0.00 99 1015.0
20260901113916 19 354 0.0 0.0 0.00 0.00 0.00 99 1014.8
20260901113415 19 353 0.0 0.0 0.00 0.00 0.00 99 1014.6
20260901112910 19 353 0.0 0.0 0.00 0.00 0.00 99 1014.6
20260901112405 18 353 0.0 0.0 0.00 0.00 0.00 99 1014.6
20260901111900 18 353 0.0 0.0 0.00 0.00 0.00 99 1014.6
20260901111358 18 352 0.0 0.0 0.00 0.00 0.00 99 1014.7
20260901110857 18 352 0.0 0.0 0.00 0.00 0.00 99 1014.6
20260901110353 18 352 0.0 0.0 0.00 0.00 0.00 99 1014.6
20260901105849 18 352 0.0 0.0 0.00 0.00 0.00 99 1014.3
20260901105344 18 352 0.0 0.0 0.00 0.00 0.00 99 1014.5
20260901104840 18 352 0.0 0.0 0.00 0.00 0.00 99 1014.4
20260901104335 18 352 0.0 0.0 0.00 0.00 0.00 99 1014.2
20260901103830 18 352 0.0 0.0 0.00 0.00 0.00 99 1014.2
20260901103324 18 352 0.0 0.0 0.00 0.00 0.00 99 1014.1
20260901102820 18 352 0.0 0.0 0.00 0.00 0.00 99 1014.1
20260901102320 18 352 0.0 0.0 0.00 0.00 0.00 99 1014.1
20260901101815 19 352 0.0 0.0 0.00 0.00 0.00 99 1014.0
20260901101310 19 352 0.0 0.0 0.00 0.00 0.00 99 1014.1
20260901100809 19 352 0.0 0.0 0.00 0.00 0.00 99 1014.1
20260901100304 19 352 0.0 0.0 0.00 0.00 0.00 99 1014.4
20260901095803 19 352 0.0 0.0 0.00 0.00 0.00 99 1014.2
20260901095300 19 352 0.0 0.0 0.00 0.00 0.00 99 1014.5
20260901094754 19 352 0.0 0.0 0.00 0.00 0.00 99 1014.2
20260901094249 19 352 0.0 0.0 0.00 0.00 0.00 99 1014.0
20260901093745 19 352 0.0 0.0 0.00 0.00 0.00 99 1014.1
20260901093243 20 352 0.0 0.0 0.00 0.00 0.00 99 1014.1
20260901092740 20 352 0.0 0.0 0.00 0.00 0.00 99 1013.9
20260901092235 20 352 0.0 0.0 0.00 0.00 0.00 99 1014.1
20260901091731 20 352 0.0 0.0 0.00 0.00 0.00 99 1014.2
20260901091226 20 353 0.0 0.0 0.00 0.00 0.00 99 1014.0
20260901090721 20 352 0.0 0.0 0.00 0.00 0.00 99 1014.2
20260901090216 20 352 0.0 0.0 0.00 0.00 0.00 99 1013.9
20260901085712 20 352 0.0 0.0 0.00 0.00 0.00 99 1014.1
20260901085207 20 352 0.0 0.0 0.00 0.00 0.00 99 1014.1
20260901084704 20 352 0.0 0.0 0.00 0.00 0.00 99 1014.1
20260901084159 20 353 0.0 0.0 0.00 0.00 0.00 99 1014.0
20260901083653 20 352 0.0 0.0 0.00 0.00 0.00 99 1013.9
20260901083152 20 353 0.0 0.0 0.00 0.00 0.00 99 1014.0
20260901082646 19 352 0.0 0.0 0.00 0.00 0.00 99 1014.1
20260901082142 19 353 0.0 0.0 0.00 0.00 0.00 99 1014.3
20260901081637 19 352 0.0 0.0 0.00 0.00 0.00 99 1014.0
20260901081131 19 352 0.0 0.0 0.00 0.00 0.00 99 1014.2
20260901080631 19 353 0.0 0.0 0.00 0.00 0.00 99 1014.2
20260901080130 19 353 0.0 0.0 0.00 0.00 0.00 99 1014.2
20260901075626 19 353 0.0 0.0 0.00 0.00 0.00 99 1014.3
20260901075125 19 352 0.0 0.0 0.00 0.00 0.00 99 1014.2
20260901074625 19 353 0.0 0.0 0.00 0.00 0.00 99 1014.4
20260901074120 19 353 0.0 0.0 0.00 0.00 0.00 99 1014.2
20260901073616 19 353 0.0 0.0 0.00 0.00 0.00 99 1014.2
20260901073111 19 353 0.0 0.0 0.00 0.00 0.00 99 1014.2
20260901072607 19 353 0.0 0.0 0.00 0.00 0.00 99 1014.2
20260901072101 19 352 0.0 0.0 0.00 0.00 0.00 99 1014.4
20260901071556 19 353 0.0 0.0 0.00 0.00 0.00 99 1014.3
20260901071055 19 353 0.0 0.0 0.00 0.00 0.00 99 1014.2
20260901070549 18 353 0.0 0.0 0.00 0.00 0.00 99 1014.2
20260901070045 18 353 0.0 0.0 0.00 0.00 0.00 99 1014.3
20260901065539 18 352 0.0 0.0 0.00 0.00 0.00 99 1014.6
20260901065034 18 353 0.0 0.0 0.00 0.00 0.00 99 1014.4
20260901064531 18 353 0.0 0.0 0.00 0.00 0.00 99 1014.4
20260901064027 18 353 0.0 0.0 0.00 0.00 0.00 99 1014.6
20260901063524 18 353 0.0 0.0 0.00 0.00 0.00 99 1014.6
20260901063020 18 353 0.0 0.0 0.00 0.00 0.00 99 1014.5
20260901062515 19 353 0.0 0.0 0.00 0.00 0.00 99 1014.6
20260901062011 19 353 0.0 0.0 0.00 0.00 0.00 99 1014.5
20260901061507 19 352 0.0 0.0 0.00 0.00 0.00 99 1014.7
20260901061006 19 353 0.0 0.0 0.00 0.00 0.00 99 1014.7
20260901060456 20 352 0.0 0.0 0.00 0.00 0.00 99 1014.9
20260901055955 20 352 0.0 0.0 0.00 0.00 0.00 99 1014.7
20260901055452 20 352 0.0 0.0 0.00 0.00 0.00 99 1014.9
20260901054949 19 353 0.0 0.0 0.00 0.00 0.00 99 1014.8
20260901054446 19 352 0.0 0.0 0.00 0.00 0.00 99 1015.0
20260901053941 19 353 0.0 0.0 0.00 0.00 0.00 99 1014.9
20260901053436 19 353 0.0 0.0 0.00 0.00 0.00 99 1014.9
20260901052932 19 353 0.0 0.0 0.00 0.00 0.00 99 1015.2
20260901052427 19 353 0.0 0.0 0.00 0.00 0.00 99 1015.1
20260901051925 19 352 0.0 0.0 0.00 0.00 0.00 99 1015.1
20260901051422 20 353 0.0 0.0 0.00 0.00 0.00 99 1015.3
20260901050916 20 353 0.0 0.0 0.00 0.00 0.00 99 1015.1
20260901050412 20 352 0.0 0.0 0.00 0.00 0.00 99 1015.1
20260901045911 20 352 0.0 0.0 0.00 0.00 0.00 99 1015.3
20260901045406 20 352 0.0 0.0 0.00 0.00 0.00 99 1015.3
20260901044901 20 352 0.0 0.0 0.00 0.00 0.00 99 1014.9
20260901044357 20 353 0.0 0.0 0.00 0.00 0.00 99 1015.5
20260901043852 20 352 0.0 0.0 0.00 0.00 0.00 99 1015.1
20260901043348 20 352 0.0 0.0 0.00 0.00 0.00 99 1015.1
20260901042843 20 353 0.0 0.0 0.00 0.00 0.00 99 1015.2
20260901042337 20 352 0.0 0.0 0.00 0.00 0.00 99 1015.4
20260901041833 20 353 0.0 0.0 0.00 0.00 0.00 99 1015.2
20260901041328 20 353 0.0 0.0 0.00 0.00 0.00 99 1015.4
20260901040827 20 353 0.0 0.0 0.00 0.00 0.00 99 1015.3
20260901040327 20 353 0.0 0.0 0.00 0.00 0.00 99 1015.4
20260901035821 20 352 0.0 0.0 0.00 0.00 0.00 99 1015.4
20260901035320 20 353 0.0 0.0 0.00 0.00 0.00 99 1015.3
20260901034818 20 353 0.0 0.0 0.00 0.00 0.00 99 1015.5
20260901034314 20 352 0.0 0.0 0.00 0.00 0.00 99 1015.4
20260901033813 20 353 0.0 0.0 0.00 0.00 0.00 99 1015.6
20260901033312 20 353 0.0 0.0 0.00 0.00 0.00 99 1015.4
20260901032806 20 353 0.0 0.0 0.00 0.00 0.00 99 1015.6
20260901032306 20 353 0.0 0.0 0.00 0.00 0.00 99 1015.6
20260901031801 20 353 0.0 0.0 0.00 0.00 0.00 99 1015.7
20260901031257 20 353 0.0 0.0 0.00 0.00 0.00 99 1015.6
20260901030756 20 353 0.0 0.0 0.00 0.00 0.00 99 1015.8
20260901030256 20 353 0.0 0.0 0.00 0.00 0.00 99 1015.8
20260901025751 20 353 0.0 0.0 0.00 0.00 0.00 99 1015.8
20260901025246 20 353 0.0 0.0 0.00 0.00 0.00 99 1015.5
20260901024741 20 353 0.0 0.0 0.00 0.00 0.00 99 1015.8
20260901024240 20 353 0.0 0.0 0.00 0.00 0.00 99 1015.8
20260901023738 20 353 0.0 0.0 0.00 0.00 0.00 99 1015.7
20260901023233 20 353 0.0 0.0 0.00 0.00 0.00 99 1015.6
20260901022729 20 354 0.0 0.0 0.00 0.00 0.00 99 1015.8
20260901022224 20 354 0.0 0.0 0.00 0.00 0.00 99 1015.9
20260901021719 20 354 0.0 0.0 0.00 0.00 0.00 99 1015.8
20260901021215 20 354 0.0 0.0 0.00 0.00 0.00 99 1015.8
20260901020710 20 354 0.0 0.0 0.00 0.00 0.00 99 1015.7
20260901020205 20 354 0.0 0.0 0.00 0.00 0.00 99 1015.8
20260901015705 20 354 0.0 0.0 0.00 0.00 0.00 99 1015.9
20260901015200 20 354 0.0 0.0 0.00 0.00 0.00 99 1015.7
20260901014655 20 354 0.0 0.0 0.00 0.00 0.00 99 1015.7
20260901014151 20 354 0.0 0.0 0.00 0.00 0.00 99 1015.8
20260901013647 20 354 0.0 0.0 0.00 0.00 0.00 99 1015.6
20260901013142 20 354 0.0 0.0 0.00 0.00 0.00 99 1015.5
20260901012637 20 354 0.0 0.0 0.00 0.00 0.00 99 1015.5
20260901012132 20 354 0.0 0.0 0.00 0.00 0.00 99 1015.4
20260901011628 20 354 0.0 0.0 0.00 0.00 0.00 99 1015.0
20260901011127 20 354 0.0 0.0 0.00 0.00 0.00 99 1015.0
20260901010621 20 354 0.0 0.0 0.00 0.00 0.00 99 1015.2
20260901010120 20 354 0.0 0.0 0.00 0.00 0.00 99 1015.2
20260901005615 21 354 0.0 0.0 0.00 0.00 0.00 99 1015.2
20260901005110 21 354 0.0 0.0 0.00 0.00 0.00 99 1015.0
20260901004609 21 354 0.0 0.0 0.00 0.00 0.00 99 1014.9
20260901004105 21 354 0.0 0.0 0.00 0.00 0.00 99 1014.7
20260901003559 21 354 0.0 0.0 0.00 0.00 0.00 99 1015.0
20260901003058 21 354 0.0 0.0 0.00 0.00 0.00 99 1014.7
20260901002552 21 354 0.0 0.0 0.00 0.00 0.00 99 1015.0
20260901002047 21 354 0.0 0.0 0.00 0.00 0.00 99 1014.7
20260901001542 22 354 0.0 0.0 0.00 0.00 0.00 99 1014.9
20260901001037 22 354 0.0 0.0 0.00 0.00 0.00 99 1015.0
20260901000532 22 354 0.0 0.0 0.00 0.00 0.00 99 1014.9
20260901000028 22 354 0.0 0.0 0.00 0.00 0.00 99 1015.2
20260831235521 22 354 0.0 0.0 0.00 0.00 0.00 99 1015.1
20260831235017 23 354 0.0 0.0 0.00 0.00 0.00 99 1014.9
20260831234511 23 354 0.0 0.0 0.00 0.00 0.00 98 1015.0
20260831234007 23 354 0.0 0.0 0.00 0.00 0.00 98 1015.0
20260831233501 23 354 0.0 0.0 0.00 0.00 0.00 98 1014.9
20260831232957 24 354 0.0 0.0 0.00 0.00 0.00 98 1015.1
20260831232452 24 354 0.0 0.0 0.00 0.00 0.00 97 1015.1
20260831231948 24 354 0.0 0.0 0.00 0.00 0.00 97 1014.9
20260831231445 25 354 0.0 0.0 0.00 0.00 0.00 96 1015.0
20260831230940 25 354 0.0 0.0 0.00 0.00 0.00 96 1015.2
20260831230434 25 354 0.0 0.0 0.00 0.00 0.00 96 1015.1
20260831225929 25 354 0.0 0.0 0.00 0.00 0.00 96 1015.1
20260831225425 25 354 0.0 0.0 0.00 0.00 0.00 95 1015.1
20260831224920 25 354 0.0 0.0 0.00 0.00 0.00 95 1015.2
20260831224419 25 354 0.0 0.0 0.00 0.00 0.00 95 1015.0
20260831223914 25 354 0.0 0.0 0.00 0.00 0.00 94 1015.1
20260831223410 25 354 0.0 0.0 0.00 0.00 0.00 94 1015.1
20260831222907 25 354 0.0 0.0 0.00 0.00 0.00 93 1014.7
20260831222402 26 354 0.0 0.0 0.00 0.00 0.00 92 1014.9
20260831221857 26 354 0.0 0.0 0.00 0.00 0.00 92 1015.3
20260831221353 26 354 0.0 0.0 0.00 0.00 0.00 91 1015.2
20260831220848 26 354 0.0 0.0 0.00 0.00 0.00 89 1015.2
20260831220343 25 354 0.0 0.0 0.00 0.00 0.00 92 1015.4
20260831215838 25 354 0.0 0.0 0.00 0.00 0.00 93 1015.4
20260831215334 26 354 0.0 0.0 0.00 0.00 0.00 92 1015.2
20260831214830 26 354 0.0 0.0 0.00 0.00 0.00 91 1015.3
20260831214327 26 354 0.0 0.0 0.00 0.00 0.00 92 1015.5
20260831213822 26 354 0.0 0.0 0.00 0.00 0.00 91 1015.4
20260831213319 26 354 0.0 0.0 0.00 0.00 0.00 91 1015.5
20260831212814 26 353 0.0 0.0 0.00 0.00 0.00 91 1015.6
20260831212311 26 354 0.0 0.0 0.00 0.00 0.00 90 1015.2
20260831211809 26 354 0.0 0.0 0.00 0.00 0.00 91 1015.5
20260831211304 26 354 0.0 0.0 0.00 0.00 0.00 89 1015.5
20260831210758 26 354 0.0 0.0 0.00 0.00 0.00 88 1015.5
20260831210255 27 357 0.0 0.0 0.00 0.00 0.00 87 1015.4